Location: Ariel
(45.9570°N, 122.5700°W)
Time: 03:02:21
(UTC-07:00)

Altair - Pass Details

Date: 23 July 2019
Orbit: 1501 x 1683 km, 47.2° (Epoch: 21 August)

Event Time Altitude Azimuth Distance (km) Brightness Sun altitude
Rises 10:27:34 0° 191° (S) 4,672 10.1 46.8°
Reaches altitude 10° 10:31:27 10° 177° (S) 3,672 9.9 47.4°
Maximum altitude 10:38:06 23° 130° (SE) 2,776 10.2 48.5°
Drops below altitude 10° 10:44:44 10° 83° (E) 3,654 10.2 49.5°
Sets 10:48:32 0° 70° (ENE) 4,643 10.4 50.1°
